Regional Weather Roundup
Issued by NWS

Home | Current Version | Previous Version | Text Only | Print | Product List | Glossary On
Versions: 1 2 3 4 5 6 7 8 9 10 11 12 13 14 15 16 17 18 19 20 21 22 23 24 25 26 27 28 29 30 31 32 33 34 35 36 37 38 39 40 41 42 43 44 45 46 47 48 49 50
000
ASUS43 KTOP 170908
RWRKS

WEATHER ROUNDUP FOR KANSAS
NATIONAL WEATHER SERVICE GOODLAND KS
300 AM CST WED DEC 17 2014

NOTE:  "FAIR" INDICATES FEW OR NO CLOUDS BELOW 12,000 FEET WITH NO
SIGNIFICANT WEATHER AND/OR OBSTRUCTIONS TO VISIBILITY.

KSZ001>006-013>018-027>032-041>047-171000-
NORTHWEST KANSAS

CITY           SKY/WX    TMP DP  RH WIND       PRES   REMARKS
GOODLAND       CLOUDY    22  21  96 SE15      30.10S WCI   9
HAYS           MOCLDY    25  16  68 E12       30.25S WCI  14
HILL CITY      MOCLDY    22  19  89 E9        30.23F
RUSSELL        PTCLDY    23  21  92 E6        30.26F
$$

KSZ061>065-074>080-084>089-171000-
SOUTHWEST KANSAS

CITY           SKY/WX    TMP DP  RH WIND       PRES   REMARKS
DODGE CITY     CLOUDY    31  23  72 SE18      30.17F WCI  19
ELKHART          N/A     35  22  59 S13         N/A  WCI  26
GARDEN CITY    CLOUDY    28  23  81 E13       30.12F WCI  17
GREAT BEND     CLOUDY    27  19  74 E10       30.27S WCI  17
LIBERAL        CLOUDY    37  21  52 SE12      30.12S WCI  30
PRATT          CLOUDY    30  27  86 E8        30.25F
$$

KSZ066>073-081>083-090>101-171000-
SOUTHEAST KANSAS

CITY           SKY/WX    TMP DP  RH WIND       PRES   REMARKS
CHANUTE        MOCLDY    27  23  85 N5        30.33R
COFFEYVILLE    CLOUDY    29  25  85 NE6       30.34R
HUTCHINSON     PTCLDY    26  21  81 E5        30.30F
MEDICINE LODGE   N/A     31  25  78 E8        30.26F
NEWTON         PTCLDY    25  16  68 E6        30.31F
PARSONS        CLOUDY    29  25  85 CALM      30.35R
WICHITA INTL   MOCLDY    29  22  75 NE7       30.29F
WICHITA JABRA  MOCLDY    25  22  88 NE7       30.30F
WICHITA MCCONL MOCLDY    27  22  80 NE8       30.29F
WINFIELD       MOCLDY    30  24  78 E6        30.31F
$$

KSZ007>012-019>026-033>040-048>060-102>105-171000-
NORTHEAST KANSAS

CITY           SKY/WX    TMP DP  RH WIND       PRES   REMARKS
CONCORDIA      CLOUDY    24  19  81 E6        30.32S
EMPORIA        PTCLDY    23  20  88 N5        30.33R
LAWRENCE       CLOUDY    26  19  74 N8        30.36S
MANHATTAN      CLOUDY    25  20  81 NE8       30.35R
MARYSVILLE     MOCLDY    25  19  80 CALM      30.35S
OLATHE IND     CLOUDY    25  21  85 N5        30.34S
OLATHE EXE     CLOUDY    26  21  81 N5        30.33R
SALINA         PTCLDY    25  19  78 E6        30.33S
TOPEKA BILLARD CLOUDY    27  20  75 N6        30.36F
TOPEKA FORBES  CLOUDY    27  20  75 N7        30.35R
$$



USA.gov is the U.S. government's official web portal to all federal, state and local government web resources and services.